Regional Weather Roundup
Issued by NWS

Home | Current Version | Previous Version | Graphics & Text | Print | Product List | Glossary On
Versions: 1 2 3 4 5 6 7 8 9 10 11 12 13 14 15 16 17 18 19 20 21 22 23 24 25 26 27 28 29 30 31 32 33 34 35 36 37 38 39 40 41 42 43 44 45 46 47 48 49 50
000
ASUS43 KFSD 251110
RWRSD

WEATHER ROUNDUP FOR SOUTH DAKOTA
NATIONAL WEATHER SERVICE SIOUX FALLS SD
600 AM CDT TUE JUL 25 2017

NOTE: "FAIR" INDICATES FEW OR NO CLOUDS BELOW 12,000 FEET WITH NO
SIGNIFICANT WEATHER AND/OR OBSTRUCTIONS TO VISIBILITY.


SDZ001>005-009-010-012>017-251200-
NORTHWEST AND NORTH CENTRAL SOUTH DAKOTA

CITY           SKY/WX    TMP DP  RH WIND       PRES   REMARKS
BUFFALO          N/A     72  61  68 NE12      29.85F
FAITH            N/A     69  66  90 NE14      29.86F
MOBRIDGE       CLOUDY    66  64  93 N6        29.82R
$$

SDZ012>016-024>037-041>051-057-063-072>074-251200-
SOUTHWEST AND SOUTH CENTRAL SOUTH DAKOTA

CITY           SKY/WX    TMP DP  RH WIND       PRES   REMARKS
RAPID CTY ARPT CLEAR     69  60  73 N14       29.88R
PIERRE         CLEAR     64  61  90 N8        29.79R
CUSTER         CLEAR     61  44  53 NW3       30.04R
ELLSWORTH AFB  MOCLDY    70  64  81 N16       29.88R
PHILIP         CLEAR     66  57  72 NW3       29.80S
PINE RIDGE     CLEAR     68  59  73 W6        29.88S
SPEARFISH      FAIR      68  55  64 W6        29.97S
WINNER         FAIR      77  63  61 S20G25    29.82R
$$

SDZ004>011-016>023-039-040-251200-
NORTHEAST SOUTH DAKOTA

CITY           SKY/WX    TMP DP  RH WIND       PRES   REMARKS
ABERDEEN       CLEAR     67  65  93 SE6       29.82S
WATERTOWN      CLEAR     66  32  28 S14       29.86F
BROOKINGS      CLEAR     68  64  87 S14       29.90S
SISSETON         N/A     65  65 100 SE8       29.84F
$$

SDZ017-020-022-023-036>040-048>070-251200-
SOUTHEAST SOUTH DAKOTA

CITY           SKY/WX    TMP DP  RH WIND       PRES   REMARKS
SIOUX FALLS    PTCLDY    70  67  90 S14       29.91F
HURON          CLEAR     70  68  93 MISG      29.81S
CHAMBERLAIN    CLEAR     79  67  65 SW12      29.81R
MITCHELL       CLEAR     73  69  87 SE13      29.84R
YANKTON        CLEAR     72  68  87 E5        29.89S
$$

ABBREVIATIONS USED IN REMARKS
   TC - TEMPERATURE IN CELSIUS
  WCI - WIND CHILL INDEX
   HX - HEAT INDEX
  VSB - VISIBILITY





USA.gov is the U.S. government's official web portal to all federal, state and local government web resources and services.